Location: ?????????
(41.1143°N, 22.7905°E)
Time: 14:17:10
(UTC+00:00)

USA 81 - Pass Details

Date: 13 December 2025
Orbit: 783 x 785 km, 85.0° (Epoch: 19 January)

Event Time Altitude Azimuth Distance (km) Brightness Sun altitude
Rises 16:25:31 0° 357° (N) 3,284 7.1 -15.4°
Reaches altitude 10° 16:27:54 10° 0° (N) 2,351 6.3 -15.8°
Maximum altitude 16:33:10 70° 84° (E) 833 3.9 -16.8°
Drops below altitude 10° 16:38:23 10° 169° (SSE) 2,333 6.6 -17.7°
Sets 16:40:44 0° 171° (S) 3,256 7.3 -18.2°
